User: anonymous   Login
Location: Unspecified
(0.0000°N, 0.0000°E)
Time: 20:20:31
(UTC+00:00)
Language:

USA 188 - Orbit

View from above orbital plane
View from above orbital plane
View from above satellite
View from above satellite

Ground track
Ground track

The orbit data is extracted from the following two-line orbital elements,

1 29241U 06024B   17080.61000000 0.00000000  00000-0  00000-0 0    06
2 29241   5.8360  58.8890 0006340  84.2890 275.2833  0.98862514    07
Epoch (UTC): 21 March 2017 14:38:24
Eccentricity: 0.0006340
inclination: 5.8360°
perigee height: 36159 km
apogee height: 36213 km
right ascension of ascending node: 58.8890°
argument of perigee: 84.2890°
revolutions per day: 0.98862514
mean anomaly at epoch: 275.2833°
orbit number at epoch: 0

The dashed part of the orbit path shows where the satellite is in the earth's shadow,  

DLR